Latest Coastal Weather Observations for Lady Elliot Island

IDQ60701

Issued at 2:52 pm EST Thursday 30 June 2016 (issued every 10 minutes, with the page automatically refreshed every 10 minutes)

About coastal observations | Map of coastal stations | Coastal observations for QLD | Marine services | Other Formats
Station Details ID: 039059 Name: LADY ELLIOT ISLAND Lat: -24.11 Lon: 152.72 Height: 3.6 m
Data from the previous 72 hours. | See also: Recent months at Lady Elliot Island
Date/Time
EST
Temp
°C
Wind Pressure Rain since
9am
mm
Weather Cloud Vis
km
Sea
Height
m
Swell
Dir  Spd
kts
Gust
kts
hPa Trend Height
m
Period
s
Dir
30/02:30pm 20.6 SSE 5 9 1020.1 - 0.4 - - - - - - -
30/02:00pm 20.9 SSE 8 11 1020.2 - 0.2 - - - - - - -
30/01:30pm 20.8 S 8 11 1020.4 - 0.2 - - - - - - -
30/01:00pm 21.2 S 9 13 1020.5 - 0.2 - - - - - - -
30/12:30pm 21.3 S 9 13 1020.9 - 0.2 - - - - - - -
30/12:00pm 21.1 S 8 11 1021.2 - 0.2 Recent precip. - - - - - -
30/11:30am 20.3 SSE 7 11 1021.8 - 0.0 - - - - - - -
30/11:00am 20.2 SSE 8 14 1022.0 - 0.0 - - - - - - -
30/10:30am 20.8 SSE 9 13 1022.2 - 0.0 - - - - - - -
30/10:00am 20.7 SSE 9 13 1022.6 - 0.0 - - - - - - -
30/09:30am 20.2 SE 11 15 1022.6 - 0.0 - - - - - - -
30/09:00am 20.0 SSE 8 11 1022.7 - 0.0 - - - - - - -
30/08:30am 20.0 SSE 9 13 1022.6 - 0.0 - - - - - - -
30/08:00am 19.3 SSE 10 15 1022.3 - 0.0 - - - - - - -
30/07:30am 19.5 SSE 10 14 1022.0 - 0.0 - - - - - - -
30/07:00am 19.1 SSE 10 14 1021.8 - 0.0 - - - - - - -
30/06:30am 19.1 SSE 10 15 1021.7 - 0.0 - - - - - - -
30/06:00am 19.2 SSE 11 15 1021.4 - 0.0 - - - - - - -
30/05:30am 19.2 SSE 11 14 1021.3 - 0.0 - - - - - - -
30/05:00am 19.1 SSE 11 15 1021.2 - 0.0 - - - - - - -
30/04:30am 19.0 SSE 10 14 1021.3 - 0.0 - - - - - - -
30/04:00am 19.1 SSE 11 16 1021.4 - 0.0 - - - - - - -
30/03:30am 19.4 SE 13 18 1021.3 - 0.0 - - - - - - -
30/03:00am 19.3 SE 14 18 1021.4 - 0.0 - - - - - - -
30/02:30am 19.1 SSE 12 17 1021.7 - 0.0 - - - - - - -
30/02:00am 19.0 SE 14 19 1022.2 - 0.0 - - - - - - -
30/01:30am 19.1 SE 14 21 1022.5 - 0.0 - - - - - - -
30/01:00am 18.8 SE 13 19 1022.9 - 0.0 - - - - - - -
30/12:30am 19.0 SSE 13 19 1023.1 - 0.0 - - - - - - -
30/12:00am 18.9 SSE 13 19 1023.2 - 0.0 - - - - - - -
 
Date/Time
EST
Temp
°C
Wind Pressure Rain since
9am
mm
Weather Cloud Vis
km
Sea
Height
m
Swell
Dir  Spd
kts
Gust
kts
hPa Trend Height
m
Period
s
Dir
29/11:30pm 19.0 SSE 14 19 1023.4 - 0.0 - - - - - - -
29/11:00pm 19.0 SSE 15 21 1023.7 - 0.0 - - - - - - -
29/10:30pm 18.8 SSE 14 19 1024.0 - 0.0 - - - - - - -
29/10:00pm 18.9 SSE 15 21 1024.1 - 0.0 - - - - - - -
29/09:30pm 18.8 SSE 15 22 1024.2 - 0.0 - - - - - - -
29/09:00pm 18.8 SSE 14 21 1024.2 - 0.0 - - - - - - -
29/08:30pm 18.9 SSE 16 22 1024.2 - 0.0 - - - - - - -
29/08:00pm 18.8 SSE 14 20 1024.1 - 0.0 - - - - - - -
29/07:30pm 18.8 SSE 14 19 1024.0 - 0.0 - - - - - - -
29/07:00pm 18.9 SSE 14 20 1024.0 - 0.0 - - - - - - -
29/06:30pm 18.7 SSE 14 21 1023.8 - 0.0 - - - - - - -
29/06:00pm 18.8 SSE 14 19 1023.3 - 0.0 - - - - - - -
29/05:30pm 18.9 SSE 12 18 1023.0 - 0.0 - - - - - - -
29/05:00pm 19.0 SSE 13 19 1022.8 - 0.0 - - - - - - -
29/04:30pm 19.1 SSE 12 17 1022.7 - 0.0 - - - - - - -
29/04:00pm 19.4 SSE 11 18 1022.7 - 0.0 - - - - - - -
29/03:30pm 19.6 SSE 11 16 1022.5 - 0.0 - - - - - - -
29/03:00pm 19.8 SSE 11 16 1022.2 - 0.0 - - - - - - -
29/02:30pm 19.7 SSE 11 16 1022.2 - 0.0 - - - - - - -
29/02:00pm 19.7 S 11 15 1022.3 - 0.0 - - - - - - -
29/01:30pm 19.6 S 11 17 1022.4 - 0.0 - - - - - - -
29/01:00pm 19.5 S 12 16 1022.9 - 0.0 - - - - - - -
29/12:30pm 19.1 S 12 18 1023.1 - 0.0 - - - - - - -
29/12:00pm 18.7 S 13 18 1023.7 - 0.0 - - - - - - -
29/11:30am 18.6 S 13 19 1024.2 - 0.0 - - - - - - -
29/11:00am 18.6 S 12 19 1024.6 - 0.0 - - - - - - -
29/10:30am 18.1 S 13 19 1025.0 - 0.0 - - - - - - -
29/10:00am 17.8 S 11 18 1025.3 - 0.0 - - - - - - -
29/09:30am 17.6 S 11 19 1025.4 - 0.0 - - - - - - -
29/09:00am 17.3 S 11 16 1025.5 - 0.0 - - - - - - -
29/08:30am 17.1 S 11 17 1025.3 - 0.0 - - - - - - -
29/08:00am 16.6 S 12 17 1025.0 - 0.0 - - - - - - -
29/07:30am 16.1 S 12 17 1024.7 - 0.0 - - - - - - -
29/07:00am 15.7 S 11 18 1024.7 - 0.0 - - - - - - -
29/06:30am 15.3 S 12 17 1024.5 - 0.0 - - - - - - -
29/06:00am 15.2 S 12 16 1024.4 - 0.0 - - - - - - -
29/05:30am 15.2 S 11 17 1023.9 - 0.0 - - - - - - -
29/05:00am 15.2 S 12 17 1023.6 - 0.0 - - - - - - -
29/04:30am 15.1 S 12 16 1023.4 - 0.0 - - - - - - -
29/04:00am 15.0 S 12 19 1023.3 - 0.0 - - - - - - -
29/03:30am 15.2 S 13 18 1023.3 - 0.0 - - - - - - -
29/03:00am 15.0 SSW 14 21 1023.3 - 0.0 - - - - - - -
29/02:30am 15.1 SSW 16 21 1023.4 - 0.0 - - - - - - -
29/02:00am 15.2 SSW 15 21 1023.4 - 0.0 - - - - - - -
29/01:30am 15.4 S 15 23 1023.4 - 0.0 - - - - - - -
29/01:00am 15.4 SSW 16 21 1023.6 - 0.0 - - - - - - -
29/12:30am 15.7 S 15 23 1023.7 - 0.0 - - - - - - -
29/12:00am 15.7 S 15 22 1023.8 - 0.0 - - - - - - -
 
Date/Time
EST
Temp
°C
Wind Pressure Rain since
9am
mm
Weather Cloud Vis
km
Sea
Height
m
Swell
Dir  Spd
kts
Gust
kts
hPa Trend Height
m
Period
s
Dir
28/11:30pm 15.7 S 16 24 1023.9 - 0.0 - - - - - - -
28/11:00pm 15.8 S 16 26 1023.9 - 0.0 - - - - - - -
28/10:59pm 15.8 S 16 26 1023.9 - 0.0 - - - - - - -
28/10:30pm 16.2 S 15 22 1023.8 - 0.0 - - - - - - -
28/10:00pm 16.3 S 16 24 1023.8 - 0.0 - - - - - - -
28/09:30pm 16.5 SSW 17 24 1023.9 - 0.0 - - - - - - -
28/09:00pm 16.5 SSW 17 24 1023.8 - 0.0 - - - - - - -
28/08:30pm 16.7 SSW 15 22 1023.7 - 0.0 - - - - - - -
28/08:20pm 16.5 S 15 25 1023.7 - 0.0 - - - - - - -
28/08:00pm 16.9 SSW 16 22 1023.3 - 0.0 - - - - - - -
28/07:36pm 16.7 SSW 16 26 1023.2 - 0.0 - - - - - - -
28/07:30pm 16.7 SSW 17 25 1023.2 - 0.0 - - - - - - -
28/07:00pm 16.9 SSW 17 23 1022.9 - 0.0 - - - - - - -
28/06:30pm 16.9 SSW 16 21 1022.4 - 0.0 - - - - - - -
28/06:00pm 16.6 SSW 13 22 1022.0 - 0.0 - - - - - - -
28/05:30pm 16.4 SSW 13 19 1021.5 - 0.0 - - - - - - -
28/05:00pm 16.3 SSW 14 23 1021.2 - 0.0 - - - - - - -
28/04:30pm 16.5 SSW 11 17 1020.9 - 0.0 - - - - - - -
28/04:00pm 16.6 SSW 12 16 1020.6 - 0.0 - - - - - - -
28/03:30pm 16.8 SSW 10 14 1020.6 - 0.0 - - - - - - -
28/03:00pm 16.4 SSW 15 21 1020.5 - 0.0 - - - - - - -
28/02:30pm 16.5 SSW 13 19 1020.5 - 0.0 - - - - - - -
28/02:00pm 16.3 SSW 15 21 1020.2 - 0.0 - - - - - - -
28/01:30pm 16.0 SW 15 21 1020.5 - 0.0 - - - - - - -
28/01:00pm 15.9 SW 14 23 1020.5 - 0.0 - - - - - - -
28/12:30pm 15.4 SSW 13 21 1021.0 - 0.0 - - - - - - -
28/12:00pm 15.2 SSW 12 19 1021.5 - 0.0 - - - - - - -
28/11:30am 14.2 SSW 15 23 1021.7 - 0.0 - - - - - - -
28/11:00am 14.1 SSW 15 22 1022.2 - 0.0 - - - - - - -
28/10:42am 13.8 SSW 15 25 1022.1 - 0.0 - - - - - - -
28/10:30am 13.4 SSW 18 25 1022.2 - 0.0 - - - - - - -
28/10:03am 12.9 SSW 18 28 1022.3 - 0.0 - - - - - - -
28/10:00am 13.0 SSW 18 26 1022.2 - 0.0 - - - - - - -
28/09:54am 12.8 SSW 20 30 1022.1 - 0.0 - - - - - - -
28/09:30am 12.8 SSW 20 29 1022.3 - 0.0 - - - - - - -
28/09:00am 12.3 SSW 20 29 1022.4 - 3.0 - - - - - - -
28/08:33am 12.2 SSW 22 32 1021.9 - 3.0 - - - - - - -
28/08:30am 11.8 SSW 23 32 1021.8 - 3.0 - - - - - - -
28/08:04am 12.0 SSW 21 31 1022.0 - 3.0 - - - - - - -
28/08:00am 11.9 SSW 22 31 1021.9 - 3.0 - - - - - - -
28/07:30am 11.6 SSW 20 32 1021.5 - 3.0 - - - - - - -
28/07:01am 11.6 SSW 22 32 1021.3 - 3.0 - - - - - - -
28/07:00am 11.6 SSW 23 32 1021.3 - 3.0 - - - - - - -
28/06:30am 11.6 SSW 19 31 1020.9 - 3.0 - - - - - - -
28/06:00am 11.7 SSW 19 29 1020.6 - 3.0 - - - - - - -
28/05:30am 12.2 SSW 19 29 1020.2 - 3.0 - - - - - - -
28/05:22am 11.9 SSW 18 28 1020.1 - 3.0 - - - - - - -
28/05:00am 12.4 SSW 19 27 1019.9 - 3.0 - - - - - - -
28/04:30am 12.8 SSW 20 29 1019.6 - 3.0 - - - - - - -
28/04:20am 12.9 SSW 17 27 1019.6 - 3.0 - - - - - - -
28/04:00am 12.9 SSW 17 24 1019.7 - 3.0 - - - - - - -
28/03:30am 13.2 SSW 16 23 1019.7 - 3.0 - - - - - - -
28/03:16am 13.3 SSW 16 26 1019.5 - 3.0 - - - - - - -
28/03:00am 13.3 SSW 17 25 1019.6 - 3.0 - - - - - - -
28/02:30am 13.7 SSW 17 28 1019.5 - 3.0 - - - - - - -
28/02:23am 13.7 SSW 18 28 1019.5 - 3.0 - - - - - - -
28/02:00am 14.0 SSW 17 24 1019.3 - 3.0 - - - - - - -
28/01:36am 14.0 SSW 17 29 1019.5 - 3.0 - - - - - - -
28/01:30am 14.1 SSW 17 26 1019.6 - 3.0 - - - - - - -
28/01:00am 14.3 SSW 19 29 1019.3 - 3.0 - - - - - - -
28/12:30am 14.6 SSW 20 30 1019.3 - 3.0 - - - - - - -
28/12:00am 15.0 SSW 17 28 1019.0 - 3.0 - - - - - - -
 
Date/Time
EST
Temp
°C
Wind Pressure Rain since
9am
mm
Weather Cloud Vis
km
Sea
Height
m
Swell
Dir  Spd
kts
Gust
kts
hPa Trend Height
m
Period
s
Dir
27/11:30pm 15.2 SSW 19 29 1019.1 - 3.0 - - - - - - -
27/11:23pm 15.3 SSW 19 29 1019.0 - 3.0 - - - - - - -
27/11:00pm 15.5 SSW 20 28 1019.0 - 3.0 - - - - - - -
27/10:30pm 16.0 SSW 16 25 1019.0 - 3.0 - - - - - - -
27/10:08pm 16.3 SSW 17 27 1018.9 - 3.0 - - - - - - -
27/10:00pm 16.4 SSW 18 25 1018.8 - 3.0 - - - - - - -
27/09:33pm 17.0 SSW 16 26 1018.8 - 3.0 - - - - - - -
27/09:30pm 17.1 SSW 17 26 1018.7 - 3.0 - - - - - - -
27/09:28pm 17.1 SSW 16 26 1018.7 - 3.0 - - - - - - -
27/09:00pm 17.3 SSW 15 22 1018.4 - 3.0 - - - - - - -
27/08:36pm 17.2 SSW 15 26 1018.2 - 3.0 - - - - - - -
27/08:30pm 17.3 SSW 15 23 1018.1 - 3.0 - - - - - - -
27/08:00pm 17.3 SSW 15 23 1018.1 - 3.0 - - - - - - -
27/07:30pm 17.4 SSW 16 23 1017.9 - 3.0 - - - - - - -
27/07:00pm 17.4 SSW 14 21 1017.5 - 3.0 - - - - - - -
27/06:30pm 17.6 SSW 15 23 1017.2 - 3.0 - - - - - - -
27/06:00pm 17.6 SSW 14 21 1016.7 - 3.0 - - - - - - -
27/05:30pm 17.5 SSW 17 23 1016.2 - 3.0 - - - - - - -
27/05:00pm 17.9 SSW 14 19 1015.7 - 3.0 - - - - - - -
27/04:42pm 17.6 SSW 15 20 1015.6 - 3.0 - - - - - - -
27/04:30pm 19.0 SW 5 7 1015.3 - 3.0 - - - - - - -
27/04:00pm 19.0 SW 6 9 1015.2 - 2.8 - - - - - - -
27/03:30pm 18.9 SW 8 12 1015.0 - 2.6 - - - - - - -
27/03:00pm 19.0 SW 8 11 1014.8 - 2.4 Rain - - - - - -

Other Formats:

Comma delimited format used in spreadsheet applications
http://www.bom.gov.au/fwo/IDQ60701/IDQ60701.94388.axf

JavaScript Object Notation format (JSON) in row-major order
http://www.bom.gov.au/fwo/IDQ60701/IDQ60701.94388.json